Location: Jastrz?bniki
(50.3667°N, 20.3833°E)
Time: 11:05:35
(UTC+00:00)

Cosmos 2333 Rocket - Pass Details

Date: 05 August 2024
Orbit: 838 x 863 km, 70.8° (Epoch: 09 September)

Event Time Altitude Azimuth Distance (km) Brightness Sun altitude
Exits shadow 00:39:12 29° 188° (S) 1,519 3.0 -18.2°
Maximum altitude 00:42:08 66° 114° (ESE) 936 2.4 -17.9°
Drops below altitude 10° 00:47:51 10° 34° (NE) 2,511 6.0 -17.5°
Sets 00:50:20 0° 32° (NNE) 3,454 7.2 -17.3°
